Hourly Weather Bolshie Lipki

Today, 25 July, Sunday

Time Temperature Precipitation Wind Pressure Humidity
00:00 +13°C° 0 mm 1 mps 756 mmHg 72%
01:00 +13°C° 0 mm 1 mps 756 mmHg 74%
02:00 +12°C° 0 mm 1 mps 756 mmHg 76%
03:00 +12°C° 0 mm 1 mps 756 mmHg 77%
04:00 +13°C° 0 mm 1 mps 756 mmHg 78%
05:00 +13°C° 0 mm 1 mps 757 mmHg 79%
06:00 +15°C° 0 mm 1 mps 757 mmHg 71%
07:00 +18°C° 0 mm 1 mps 757 mmHg 63%
08:00 +21°C° 0 mm 1 mps 757 mmHg 55%
09:00 +23°C° 0 mm 1 mps 757 mmHg 49%
10:00 +24°C° 0 mm 1 mps 757 mmHg 44%
11:00 +26°C° 0 mm 1 mps 757 mmHg 39%
12:00 +26°C° 0 mm 1 mps 757 mmHg 38%
13:00 +27°C° 0 mm 1 mps 757 mmHg 36%
14:00 +27°C° 0 mm 1 mps 757 mmHg 35%
15:00 +27°C° 0 mm 1 mps 757 mmHg 37%
16:00 +27°C° 0 mm 1 mps 757 mmHg 39%
17:00 +27°C° 0 mm 1 mps 756 mmHg 41%
18:00 +25°C° 0 mm 1 mps 757 mmHg 48%
19:00 +23°C° 0 mm 1 mps 757 mmHg 55%
20:00 +21°C° 0 mm 1 mps 757 mmHg 62%
21:00 +21°C° 0 mm 1 mps 757 mmHg 62%
22:00 +20°C° 0 mm 1 mps 757 mmHg 62%
23:00 +19°C° 0 mm 1 mps 758 mmHg 62%

Tomorrow, 26 July, Monday

Time Temperature Precipitation Wind Pressure Humidity
00:00 +19°C° 0 mm 1 mps 758 mmHg 63%
01:00 +18°C° 0 mm 1 mps 758 mmHg 64%
02:00 +18°C° 0 mm 1 mps 758 mmHg 65%
03:00 +18°C° 0 mm 1 mps 758 mmHg 68%
04:00 +15°C° 0 mm 0 mps 758 mmHg 70%
05:00 +15°C° 0 mm 0 mps 758 mmHg 72%
06:00 +17°C° 0 mm 0 mps 759 mmHg 65%
07:00 +20°C° 0 mm 0 mps 759 mmHg 58%
08:00 +22°C° 0 mm 0 mps 759 mmHg 51%
09:00 +23°C° 0 mm 0 mps 759 mmHg 46%
10:00 +25°C° 0 mm 0 mps 759 mmHg 41%
11:00 +29°C° 0 mm 1 mps 759 mmHg 37%
12:00 +29°C° 0 mm 1 mps 759 mmHg 35%
13:00 +30°C° 0 mm 1 mps 759 mmHg 34%
14:00 +30°C° 0 mm 1 mps 758 mmHg 33%
15:00 +30°C° 0 mm 1 mps 758 mmHg 34%
16:00 +29°C° 0 mm 1 mps 758 mmHg 35%
17:00 +29°C° 0 mm 1 mps 758 mmHg 36%
18:00 +27°C° 0 mm 1 mps 758 mmHg 44%
19:00 +25°C° 0 mm 1 mps 758 mmHg 51%
20:00 +23°C° 0 mm 1 mps 758 mmHg 59%
21:00 +22°C° 0 mm 1 mps 758 mmHg 61%
22:00 +21°C° 0 mm 1 mps 758 mmHg 62%
23:00 +19°C° 0 mm 2 mps 758 mmHg 64%

Day after tomorrow, 27 July, Tuesday

Time Temperature Precipitation Wind Pressure Humidity
00:00 +19°C° 0 mm 2 mps 758 mmHg 65%
01:00 +19°C° 0 mm 1 mps 758 mmHg 66%
02:00 +19°C° 0 mm 1 mps 758 mmHg 67%
03:00 +19°C° 0 mm 1 mps 759 mmHg 69%
04:00 +19°C° 0 mm 1 mps 759 mmHg 71%
05:00 +18°C° 0 mm 1 mps 759 mmHg 73%
06:00 +20°C° 0 mm 2 mps 758 mmHg 67%
07:00 +23°C° 0 mm 2 mps 758 mmHg 60%
08:00 +25°C° 0 mm 2 mps 758 mmHg 54%
09:00 +27°C° 0 mm 2 mps 758 mmHg 49%
10:00 +28°C° 0 mm 2 mps 758 mmHg 45%
11:00 +30°C° 0 mm 2 mps 758 mmHg 41%
12:00 +30°C° 0 mm 2 mps 757 mmHg 40%
13:00 +30°C° 0 mm 2 mps 757 mmHg 39%
14:00 +31°C° 0 mm 2 mps 757 mmHg 38%
15:00 +30°C° 0 mm 2 mps 756 mmHg 40%
16:00 +29°C° 0 mm 2 mps 756 mmHg 43%
17:00 +29°C° 0 mm 2 mps 756 mmHg 45%
18:00 +27°C° 0 mm 2 mps 756 mmHg 51%
19:00 +25°C° 0 mm 2 mps 755 mmHg 57%
20:00 +24°C° 0 mm 2 mps 755 mmHg 63%
21:00 +23°C° 0 mm 2 mps 755 mmHg 64%
22:00 +21°C° 0 mm 2 mps 755 mmHg 65%
23:00 +20°C° 0 mm 2 mps 755 mmHg 67%

28 July, Wednesday

Time Temperature Precipitation Wind Pressure Humidity
00:00 +20°C° 0 mm 2 mps 755 mmHg 69%
01:00 +19°C° 0 mm 2 mps 754 mmHg 71%
02:00 +19°C° 0 mm 2 mps 754 mmHg 74%
03:00 +19°C° 0 mm 2 mps 754 mmHg 76%
04:00 +18°C° 0 mm 2 mps 753 mmHg 77%
05:00 +18°C° 0 mm 2 mps 753 mmHg 79%
06:00 +20°C° 0 mm 2 mps 753 mmHg 74%
07:00 +21°C° 0 mm 2 mps 753 mmHg 69%
08:00 +24°C° 0 mm 2 mps 752 mmHg 64%
09:00 +24°C° 0 mm 2 mps 752 mmHg 64%
10:00 +24°C° 0 mm 2 mps 752 mmHg 64%
11:00 +24°C° 0 mm 3 mps 752 mmHg 65%
12:00 +24°C° 0.1 mm 3 mps 752 mmHg 66%
13:00 +25°C° 0.1 mm 3 mps 751 mmHg 68%
14:00 +25°C° 0.1 mm 4 mps 751 mmHg 70%
15:00 +24°C° 0.2 mm 3 mps 751 mmHg 74%
16:00 +22°C° 0.2 mm 3 mps 750 mmHg 79%
17:00 +21°C° 0.2 mm 3 mps 750 mmHg 84%
18:00 +21°C° 0.1 mm 3 mps 750 mmHg 86%
19:00 +20°C° 0.1 mm 2 mps 750 mmHg 89%
20:00 +19°C° 0.1 mm 2 mps 749 mmHg 92%
21:00 +20°C° 0 mm 1 mps 749 mmHg 93%
22:00 +20°C° 0 mm 1 mps 749 mmHg 95%
23:00 +17°C° 0 mm 0 mps 749 mmHg 96%

29 July, Thursday

Time Temperature Precipitation Wind Pressure Humidity
00:00 +17°C° 0 mm 0 mps 748 mmHg 97%
01:00 +17°C° 0 mm 0 mps 748 mmHg 97%
02:00 +17°C° 0 mm 0 mps 748 mmHg 98%
03:00 +17°C° 0 mm 0 mps 748 mmHg 98%
04:00 +19°C° 0 mm 1 mps 748 mmHg 97%
05:00 +19°C° 0 mm 1 mps 748 mmHg 97%
06:00 +20°C° 0 mm 1 mps 748 mmHg 94%
07:00 +20°C° 0 mm 2 mps 748 mmHg 91%
08:00 +20°C° 0 mm 2 mps 748 mmHg 88%
09:00 +23°C° 0.1 mm 2 mps 748 mmHg 79%
10:00 +24°C° 0.1 mm 3 mps 748 mmHg 70%
11:00 +26°C° 0.1 mm 3 mps 747 mmHg 61%
12:00 +26°C° 0.1 mm 4 mps 747 mmHg 61%
13:00 +26°C° 0.1 mm 4 mps 747 mmHg 61%
14:00 +26°C° 0.1 mm 5 mps 747 mmHg 61%
15:00 +25°C° 0.2 mm 4 mps 747 mmHg 65%
16:00 +23°C° 0.2 mm 4 mps 747 mmHg 69%
17:00 +23°C° 0.2 mm 4 mps 747 mmHg 73%
18:00 +22°C° 0.1 mm 3 mps 747 mmHg 78%
19:00 +21°C° 0.1 mm 3 mps 747 mmHg 82%
20:00 +20°C° 0.1 mm 2 mps 747 mmHg 87%
21:00 +19°C° 0 mm 2 mps 748 mmHg 89%
22:00 +18°C° 0 mm 2 mps 748 mmHg 91%
23:00 +17°C° 0 mm 3 mps 748 mmHg 93%

30 July, Friday

Time Temperature Precipitation Wind Pressure Humidity
00:00 +17°C° 0 mm 3 mps 748 mmHg 92%
01:00 +16°C° 0 mm 3 mps 748 mmHg 92%
02:00 +14°C° 0 mm 3 mps 748 mmHg 92%
03:00 +14°C° 0 mm 3 mps 748 mmHg 92%
04:00 +14°C° 0 mm 3 mps 748 mmHg 93%
05:00 +14°C° 0 mm 3 mps 748 mmHg 94%
06:00 +17°C° 0 mm 3 mps 748 mmHg 86%
07:00 +18°C° 0 mm 4 mps 748 mmHg 78%
08:00 +20°C° 0 mm 4 mps 749 mmHg 70%
09:00 +22°C° 0 mm 4 mps 748 mmHg 60%
10:00 +23°C° 0 mm 4 mps 748 mmHg 51%
11:00 +26°C° 0 mm 5 mps 748 mmHg 41%
12:00 +27°C° 0 mm 5 mps 748 mmHg 39%
13:00 +28°C° 0 mm 5 mps 748 mmHg 37%
14:00 +28°C° 0 mm 5 mps 748 mmHg 35%
15:00 +28°C° 0 mm 4 mps 748 mmHg 38%
16:00 +27°C° 0 mm 4 mps 748 mmHg 42%
17:00 +26°C° 0 mm 3 mps 748 mmHg 46%
18:00 +24°C° 0 mm 3 mps 748 mmHg 52%
19:00 +23°C° 0 mm 2 mps 748 mmHg 59%
20:00 +20°C° 0 mm 2 mps 748 mmHg 65%
21:00 +19°C° 0 mm 2 mps 748 mmHg 66%
22:00 +19°C° 0 mm 2 mps 748 mmHg 67%
23:00 +18°C° 0 mm 2 mps 748 mmHg 67%
Show more

We Need Your Consent

Meteoprog and our Service Providers may store and access personal data such as cookies, device identifiers or other similar technologies on your device and process such data to personalise content and ads, as well as provide social media features and to analyse the traffic.

  • Store and/or access information on your device

    Cookies, device identifiers or other information can be stored or accessed on your device for the purposes indicated above.

  • Personalised ads and content, ad and content measurement, audience insights, and products development

    Ads and content can be personalised based on a profile. More data can be added to better personalise ads and content. Ad and content performance can be measured. Insights about the audience who saw the ads and content can be derived. Such data can be used to develop or improve user’s experience, systems and software.

By clicking ‘I Agree’ you will allow the use of indicated cookies, device identifiers, web beacons or other similar technologies. Your settings can be changed in the browser on your device.

For certain purposes, legitimate interests may be relied on, rather than consent. You can read more about this in our Privacy and Cookie Policy.